Weather History for Iron Mountain, MI

Change the Weather History Date:

Monday, January 14, 2013

  Actual Average Record
Temperature  
Mean Temperature 14 °F -  
Max Temperature 23 °F 23 °F 40 °F (1961)
Min Temperature 6 °F 3 °F -25 °F (1988)
Degree Days  
Heating Degree Days 50    
Moisture  
Dew Point 2 °F    
Average Humidity 65    
Maximum Humidity 80    
Minimum Humidity 44    
Precipitation  
Precipitation 0.00 in - - ()
Sea Level Pressure  
Sea Level Pressure 30.29 in    
Wind  
Wind Speed 7 mph (West)    
Max Wind Speed 14 mph    
Max Gust Speed 20 mph    
Visibility 10 miles    
Events      
Averages and records for this station are not official NWS values.
T = Trace of Precipitation, MM = Missing Value Source: NWS Daily Summary

Daily Weather History Graph

Daily Weather History Graph

Search for Another Location

Airport:

Trip Planner

Search our weather history database for the weather conditions in past years. The results will help you decide how hot, cold, wet, or windy it might be!

Date:

Astronomy

Jan. 14, 2013 Rise Set
Actual Time 7:30 AM CST 4:33 PM CST
Civil Twilight 6:56 AM CST 5:06 PM CST
Nautical Twilight 6:19 AM CST 5:43 PM CST
Astronomical Twilight 5:44 AM CST 6:19 PM CST
Moon 8:51 AM CST (1/14) 8:33 PM CST (1/14)
Length of Visible Light 10h 10m
Length of Day
9h 03m
Waxing Crescent, 11% of the Moon is Illuminated
Jan 14
Waxing Crescent
Jan 18
First Quarter
Jan 26
Full
Feb 3
Last Quarter
Feb 10
New

Hourly Weather History & Observations

Time (CST) Temp. Windchill Dew Point Humidity Pressure Visibility Wind Dir Wind Speed Gust Speed Precip Events Conditions
12:54 AM 9.0 °F -0.9 °F 1.9 °F 73% 30.12 in 10.0 mi West 5.8 mph - N/A   Clear
1:54 AM 8.1 °F -5.3 °F 1.0 °F 73% 30.14 in 10.0 mi West 9.2 mph - N/A   Clear
2:54 AM 8.1 °F -3.2 °F 1.0 °F 73% 30.17 in 10.0 mi West 6.9 mph - N/A   Clear
4:54 AM 7.0 °F -1.7 °F 1.0 °F 77% 30.22 in 10.0 mi West 4.6 mph - N/A   Clear
5:54 AM 6.1 °F -4.3 °F 1.0 °F 80% 30.26 in 10.0 mi West 5.8 mph - N/A   Clear
6:54 AM 6.1 °F -0.9 °F 1.0 °F 80% 30.29 in 10.0 mi West 3.5 mph - N/A   Clear
7:54 AM 6.1 °F - 1.0 °F 80% 30.32 in 10.0 mi Calm Calm - N/A   Partly Cloudy
8:54 AM 8.1 °F 1.4 °F 1.0 °F 73% 30.35 in 10.0 mi Variable 3.5 mph - N/A   Overcast
9:54 AM 12.9 °F 0.7 °F 1.0 °F 59% 30.35 in 10.0 mi WSW 9.2 mph - N/A   Clear
10:54 AM 16.0 °F 3.6 °F 1.9 °F 54% 30.33 in 10.0 mi WSW 10.4 mph - N/A   Clear
11:54 AM 19.9 °F 12.1 °F 3.0 °F 48% 30.29 in 10.0 mi West 5.8 mph - N/A   Clear
12:54 PM 21.9 °F 11.7 °F 3.9 °F 46% 30.27 in 10.0 mi West 9.2 mph - N/A   Clear
1:54 PM 23.0 °F 11.1 °F 3.9 °F 44% 30.29 in 10.0 mi SSW 12.7 mph - N/A   Clear
2:54 PM 19.9 °F 6.7 °F 5.0 °F 52% 30.31 in 10.0 mi WSW 13.8 mph 19.6 mph N/A   Overcast
4:54 PM 16.0 °F 5.3 °F 3.9 °F 59% 30.33 in 10.0 mi WSW 8.1 mph - N/A   Clear
5:54 PM 14.0 °F 2.9 °F 3.9 °F 64% 30.34 in 10.0 mi WSW 8.1 mph - N/A   Clear
6:54 PM 12.9 °F 5.2 °F 3.9 °F 67% 30.34 in 10.0 mi WSW 4.6 mph - N/A   Clear
7:10 PM 12.2 °F 6.1 °F 3.2 °F 67% 30.25 in 10.0 mi West 3.5 mph - N/A   Mostly Cloudy
7:21 PM 12.2 °F 4.3 °F 3.2 °F 67% 30.24 in 10.0 mi WSW 4.6 mph - N/A   Scattered Clouds
7:54 PM 12.0 °F 1.5 °F 3.0 °F 67% 30.34 in 10.0 mi WSW 6.9 mph - N/A   Mostly Cloudy
8:54 PM 12.0 °F -2.0 °F 1.9 °F 64% 30.34 in 10.0 mi WNW 11.5 mph - N/A   Overcast
9:54 PM 10.9 °F -0.8 °F 1.0 °F 64% 30.35 in 10.0 mi West 8.1 mph - N/A   Overcast
10:54 PM 10.9 °F -0.8 °F 1.0 °F 64% 30.36 in 10.0 mi WNW 8.1 mph - N/A   Overcast
11:36 PM 8.6 °F -5.5 °F -0.4 °F 67% 30.28 in 10.0 mi NW 10.4 mph - N/A   Partly Cloudy
11:54 PM 9.0 °F 0.6 °F -0.9 °F 64% 30.36 in 10.0 mi WNW 4.6 mph - N/A   Clear